Location: Longueuil
(45.5369°N, 73.5107°W)
Time: 16:40:48
(UTC-05:00)

ISS - Pass Details

Date: 31 October 2024
Orbit: 407 x 418 km, 51.6° (Epoch: 10 November)

Event Time Altitude Azimuth Distance (km) Brightness Sun altitude
Exits shadow 05:42:55 38° 359° (N) 636 -2.9 -19.7°
Maximum altitude 05:43:16 40° 18° (NNE) 616 -2.9 -19.6°
Drops below altitude 10° 05:46:25 10° 90° (E) 1,468 0.3 -19.1°
Sets 05:48:34 0° 98° (E) 2,326 1.7 -18.7°
